Regional Weather Roundup
Issued by NWS

Home | Current Version | Previous Version | Text Only | Print | Product List | Glossary Off
Versions: 1 2 3 4 5 6 7 8 9 10 11 12 13 14 15 16 17 18 19 20 21 22 23 24 25 26 27 28 29 30 31 32 33 34 35 36 37 38 39 40 41 42 43 44 45 46 47 48 49 50

000
ASUS43 KMKX 221211
RWRWI

WISCONSIN REGIONAL WEATHER ROUNDUP
NATIONAL WEATHER SERVICE MILWAUKEE/SULLIVAN WI
700 AM CDT FRI SEP 22 2017

NOTE: "FAIR" INDICATES FEW OR NO CLOUDS BELOW 12,000 FEET WITH NO
SIGNIFICANT WEATHER AND/OR OBSTRUCTIONS TO VISIBILITY.

WIZ001-002-006>008-014>016-023>028-221300-
NORTHWEST WISCONSIN

CITY           SKY/WX    TMP DP  RH WIND       PRES   REMARKS
SUPERIOR ARPT  CLOUDY    60  59  99 N3        29.87R
6HR MIN TEMP:  59; 6HR MAX TEMP:  60; 6HR PCP:  0.01;

ASHLAND        CLOUDY    71  67  87 S8        29.86F
6HR MIN TEMP:  56; 6HR MAX TEMP:  72;

HAYWARD        CLOUDY    67  64  90 CALM      29.89S
6HR MIN TEMP:  66; 6HR MAX TEMP:  71;

SIREN          CLOUDY    70  68  93 SE9       29.86
6HR MIN TEMP:  70; 6HR MAX TEMP:  76; 6HR PCP:  0.30;

CUMBERLAND     PTCLDY    68  64  88 SE3       29.90R THUNDER
RICE LAKE      CLEAR     69  66  92 SE5       29.91R FOG
6HR MIN TEMP:  67; 6HR MAX TEMP:  70;

CHETEK         CLEAR     69  68  96 SE6       29.90R
6HR MIN TEMP:  67; 6HR MAX TEMP:  69;

LADYSMITH      CLEAR     71  67  89 S6        29.94S
6HR MIN TEMP:  69; 6HR MAX TEMP:  72;

EAU CLAIRE     PTCLDY    73  68  84 S12       29.90S
6HR MIN TEMP:  72; 6HR MAX TEMP:  75;

MENOMONIE      CLEAR     70  68  94 E3        29.89S FOG
6HR MIN TEMP:  67; 6HR MAX TEMP:  70;

NEW RICHMOND   CLEAR     73  67  83 S9        29.87R
6HR MIN TEMP:  73; 6HR MAX TEMP:  74;

OSCEOLA        CLEAR     74  68  81 SE7       29.88R
6HR MIN TEMP:  74; 6HR MAX TEMP:  75;

$$

WIZ003>005-009-010-017-018-221300-
NORTH CENTRAL WISCONSIN

CITY           SKY/WX    TMP DP  RH WIND       PRES   REMARKS
MANITOWISH WTR CLOUDY    66  66 100 S7        29.96S
6HR MIN TEMP:  65; 6HR MAX TEMP:  66;

ARBOR VITAE    CLEAR     72  69  91 S7        29.96F
6HR MIN TEMP:  67; 6HR MAX TEMP:  72;

WOODRUFF       CLEAR     72  69  91 S7        29.96F
6HR MIN TEMP:  67; 6HR MAX TEMP:  72;

RHINELANDER    CLEAR     70  68  93 S3        29.99F
6HR MIN TEMP:  67; 6HR MAX TEMP:  70;

EAGLE RIVER    CLEAR     66  66  99 S3        29.97F
6HR MIN TEMP:  65; 6HR MAX TEMP:  67;

LAND O LAKES   CLEAR     67  65  93 S3        30.00S
6HR MIN TEMP:  67; 6HR MAX TEMP:  68;

PHILLIPS       CLOUDY    68  67  98 SE3       29.94S
6HR MIN TEMP:  67; 6HR MAX TEMP:  69;

TOMAHAWK       CLEAR     65  64  94 CALM      29.97F FOG
6HR MIN TEMP:  64; 6HR MAX TEMP:  67;

MEDFORD        CLEAR     67  65  93 S8        29.96F
6HR MIN TEMP:  65; 6HR MAX TEMP:  67;

MERRILL        CLEAR     68  67  99 SE3       29.98F
6HR MIN TEMP:  66; 6HR MAX TEMP:  69;

$$

WIZ029-030-035-036-043>047-221300-
CENTRAL WISCONSIN

CITY           SKY/WX    TMP DP  RH WIND       PRES   REMARKS
WAUSAU         CLEAR     66  65  96 SE6       29.97F
6HR MIN TEMP:  65; 6HR MAX TEMP:  67;

MOSINEE        PTCLDY    70  66  88 S10       30.00S
MARSHFIELD     CLEAR     68  65  90 S8        29.97F
6HR MIN TEMP:  67; 6HR MAX TEMP:  69;

STEVENS POINT  CLOUDY    67  67  99 CALM      30.00F
6HR MIN TEMP:  61; 6HR MAX TEMP:  67;

WAUPACA        CLEAR     65  64  98 CALM      30.01S FOG
6HR MIN TEMP:  64; 6HR MAX TEMP:  67;

WAUTOMA        CLEAR     62  62 100 CALM      30.01S
6HR MIN TEMP:  62; 6HR MAX TEMP:  65;

WISC RAPIDS    PTCLDY    69  66  90 S6        30.00S
6HR MIN TEMP:  65; 6HR MAX TEMP:  72;

CAMP DOUGLAS   CLEAR     68  68 100 SE7       29.98R
$$

WIZ011>013-019>022-031-037>040-048>050-221300-
NORTHEAST WISCONSIN

CITY           SKY/WX    TMP DP  RH WIND       PRES   REMARKS
ANTIGO         CLOUDY    66  65  99 S6        30.02S FOG
6HR MIN TEMP:  64; 6HR MAX TEMP:  66;

SHAWANO        CLEAR     66  65  95 CALM      29.99F FOG
6HR MIN TEMP:  64; 6HR MAX TEMP:  67;

OCONTO         MOCLDY    60  60  99 CALM      30.00F VSB 1/2
6HR MIN TEMP:  60; 6HR MAX TEMP:  62;

STURGEON BAY   CLEAR     68  67  96 S6        30.03R FOG
6HR MIN TEMP:  67; 6HR MAX TEMP:  71;

GREEN BAY      CLEAR     68  68 100 S6        30.01S FOG
6HR MIN TEMP:  65; 6HR MAX TEMP:  70;

MANITOWOC      FOG       64  64 100 CALM      30.04R VSB 1/2
6HR MIN TEMP:  64; 6HR MAX TEMP:  67;

APPLETON       PTCLDY    66  66 100 VRB5      30.01R
CLINTONVILLE   PTCLDY    63  63 100 CALM      30.00F
OSHKOSH        CLEAR     69  67  93 S8        30.02R FOG
6HR MIN TEMP:  65; 6HR MAX TEMP:  69;

$$

WIZ032>034-041-042-053>061-221300-
SOUTHWEST WISCONSIN

CITY           SKY/WX    TMP DP  RH WIND       PRES   REMARKS
LA CROSSE      CLEAR     76  69  79 S16       29.92F
6HR MIN TEMP:  72; 6HR MAX TEMP:  76;

SPARTA         CLEAR     73  67  80 S5        29.96S
6HR MIN TEMP:  73; 6HR MAX TEMP:  75;

VIROQUA        CLEAR     71  69  95 CALM      29.98S
6HR MIN TEMP:  70; 6HR MAX TEMP:  72;

BOSCOBEL       CLEAR     75  68  78 S6        29.98R
6HR MIN TEMP:  66; 6HR MAX TEMP:  75;

PRAIRIE DU CHI CLEAR     74  66  75 CALM      29.97R
6HR MIN TEMP:  74; 6HR MAX TEMP:  79;

PLATTEVILLE    CLEAR     70  70  99 S7        30.02R
6HR MIN TEMP:  70; 6HR MAX TEMP:  74;

$$

WIZ056-057-062-063-064-067-068-221300-
SOUTH CENTRAL WISCONSIN

CITY           SKY/WX    TMP DP  RH WIND       PRES   REMARKS
REEDSBURG      CLEAR     69  69 100 CALM      29.99S
6HR MIN TEMP:  69; 6HR MAX TEMP:  74;

BARABOO/DELLS  CLEAR     73  65  78 S10G16    30.00S
6HR MIN TEMP:  70; 6HR MAX TEMP:  74;

LONE ROCK      CLEAR     74  69  85 CALM      29.99S
6HR MIN TEMP:  69; 6HR MAX TEMP:  75;

MINERAL POINT  CLEAR     70  70 100 S5        30.03R
MADISON        PTCLDY    72  67  84 S6        30.02R
6HR MIN TEMP:  70; 6HR MAX TEMP:  74;

MIDDLETON      CLEAR     72  68  88 S3        30.03R
6HR MIN TEMP:  65; 6HR MAX TEMP:  74;

WATERTOWN      CLEAR     68  68 100 CALM      30.04R
6HR MIN TEMP:  67; 6HR MAX TEMP:  70;

MONROE         CLEAR     68  64  88 S9        30.04R
JANESVILLE     PTCLDY    73  68  83 S6        30.09R
$$

WIZ051-052-058>065-066-070>072-221300-
SOUTHEAST WISCONSIN

CITY           SKY/WX    TMP DP  RH WIND       PRES   REMARKS
MILWAUKEE      PTCLDY    74  69  85 SW8       30.05R
6HR MIN TEMP:  68; 6HR MAX TEMP:  74;

WAUKESHA       CLEAR     68  66  94 S5        30.07R
MILWAUKEE/TIMM CLEAR     68  63  83 S3        30.06R FOG
RACINE         CLEAR     70  69  97 SW5       30.07S FOG
6HR MIN TEMP:  68; 6HR MAX TEMP:  74;

BURLINGTON     FOG       59  59 100 CALM      30.06R VSB<1/4
6HR MIN TEMP:  59; 6HR MAX TEMP:  66;

KENOSHA        CLEAR     68  66  93 SW6       30.06R FOG
6HR MIN TEMP:  67; 6HR MAX TEMP:  73;

FOND DU LAC    CLEAR     73  66  78 S7        30.03R
6HR MIN TEMP:  69; 6HR MAX TEMP:  73;

SHEBOYGAN      FOG       65  65 100 SW6       30.04R VSB 3/4
6HR MIN TEMP:  62; 6HR MAX TEMP:  66;

WEST BEND        N/A     63  63 100 CALM      30.05S FOG
JUNEAU         CLEAR     69  67  92 SE6       30.05R
6HR MIN TEMP:  68; 6HR MAX TEMP:  71;

$$

LSZ147-162-221300-
LAKE SUPERIOR

STATION/POSITION TIME  TEMP    WIND        PRES    WAVE
                       AIR SEA DIR/SP/G            HT/PER
                 (UTC) (F)     (DEG/KT/KT) (MB)    (FT/S)
W MID LAKE BUOY  1150   62 54  200/  8/  8 1011.2F   1/ 4
DEVILS ISLAND    1200   66     130/  9/ 11 1010.7F
PORT WING        1120   60     170/  2/ 13 1011.2F
SAXON HARBOR     1140   74     180/  7/ 11 1011.2R
$$

LMZ867-665-643>646-221300-
LAKE MICHIGAN

STATION/POSITION TIME  TEMP    WIND        PRES    WAVE
                       AIR SE



USA.gov is the U.S. government's official web portal to all federal, state and local government web resources and services.